BAW858V EGLL-EKCH

Flight info

Callsign BAW858V
Flight time 1h 25m
Altitude 39000
Route BPK Q295 SOMVA DCT MAVAS DCT ROCZO DCT DOSUR P729 TUDLO
Aircraft A319/M-SDE3FGHIRWY/LB1

Departure

Time 2026-04-25 20:27
Airport London Heathrow Airport (EGLL)

Arrival

Time 2026-04-25 21:52
Airport Copenhagen Kastrup Airport (EKCH)
Time Latitude Longitude Altitude Speed Heading
2026-04-25 20:01 51.46933 -0.48573 89 ft 0 kts 360°
2026-04-25 20:19 51.46928 -0.48573 86 ft 2 kts 360°
2026-04-25 20:19 51.46909 -0.48573 88 ft 3 kts 360°
2026-04-25 20:20 51.46890 -0.48572 86 ft 3 kts 14°
2026-04-25 20:20 51.46879 -0.48583 90 ft 3 kts 77°
2026-04-25 20:20 51.46877 -0.48607 86 ft 1 kts 90°
2026-04-25 20:20 51.46877 -0.48628 86 ft 2 kts 90°
2026-04-25 20:21 51.46877 -0.48633 86 ft 0 kts 90°
2026-04-25 20:23 51.46877 -0.48626 86 ft 3 kts 89°
2026-04-25 20:23 51.46877 -0.48564 86 ft 9 kts 89°
2026-04-25 20:23 51.46852 -0.48474 86 ft 10 kts 154°
2026-04-25 20:23 51.46816 -0.48469 86 ft 3 kts 180°
2026-04-25 20:24 51.46773 -0.48469 86 ft 9 kts 180°
2026-04-25 20:24 51.46690 -0.48468 86 ft 15 kts 180°
2026-04-25 20:24 51.46612 -0.48467 86 ft 6 kts 179°
2026-04-25 20:24 51.46592 -0.48467 87 ft 0 kts 179°
2026-04-25 20:25 51.46568 -0.48467 87 ft 6 kts 179°
2026-04-25 20:25 51.46509 -0.48462 88 ft 9 kts 167°
2026-04-25 20:25 51.46479 -0.48377 87 ft 9 kts 94°
2026-04-25 20:26 51.46479 -0.48347 87 ft 0 kts 90°
2026-04-25 20:26 51.46479 -0.48346 87 ft 1 kts 90°
2026-04-25 20:27 51.46480 -0.48181 88 ft 45 kts 90°
2026-04-25 20:27 51.46483 -0.47292 87 ft 112 kts 89°
2026-04-25 20:27 51.46490 -0.45771 125 ft 159 kts 91°
2026-04-25 20:27 51.46512 -0.44029 816 ft 156 kts 90°
2026-04-25 20:28 51.46537 -0.42270 1424 ft 163 kts 88°
2026-04-25 20:28 51.46868 -0.40404 1743 ft 187 kts 62°
2026-04-25 20:28 51.47713 -0.38653 2126 ft 212 kts 50°
2026-04-25 20:28 51.48723 -0.36747 2654 ft 237 kts 50°
2026-04-25 20:29 51.49831 -0.34631 3337 ft 254 kts 50°
2026-04-25 20:29 51.50980 -0.32421 4362 ft 260 kts 50°
2026-04-25 20:29 51.52121 -0.30132 5381 ft 267 kts 56°
2026-04-25 20:29 51.52891 -0.27402 5809 ft 270 kts 70°
2026-04-25 20:30 51.53296 -0.25512 5935 ft 270 kts 70°
2026-04-25 20:30 51.54513 -0.22017 6006 ft 269 kts 47°
2026-04-25 20:30 51.55974 -0.20169 6015 ft 268 kts 27°
2026-04-25 20:30 51.57666 -0.18961 6502 ft 268 kts 22°
2026-04-25 20:31 51.59413 -0.17844 6998 ft 271 kts 16°
2026-04-25 20:31 51.61237 -0.17006 7490 ft 274 kts 15°
2026-04-25 20:31 51.63011 -0.16190 8073 ft 279 kts 15°
2026-04-25 20:31 51.64947 -0.15296 8894 ft 283 kts 15°
2026-04-25 20:32 51.66877 -0.14406 9180 ft 284 kts 15°
2026-04-25 20:32 51.68736 -0.13439 9260 ft 285 kts 25°
2026-04-25 20:32 51.70277 -0.11473 9273 ft 286 kts 52°
2026-04-25 20:32 51.71134 -0.08597 9273 ft 287 kts 73°
2026-04-25 20:33 51.71633 -0.05473 9268 ft 288 kts 76°
2026-04-25 20:33 51.72090 -0.02373 9261 ft 288 kts 76°
2026-04-25 20:33 51.72547 0.00766 9229 ft 288 kts 76°
2026-04-25 20:33 51.72851 0.02896 9237 ft 288 kts 76°
2026-04-25 20:34 51.73442 0.07072 9238 ft 289 kts 76°
2026-04-25 20:34 51.73883 0.10237 9240 ft 288 kts 76°
2026-04-25 20:34 51.74325 0.13392 9241 ft 288 kts 76°
2026-04-25 20:34 51.74768 0.16547 9242 ft 288 kts 76°
2026-04-25 20:35 51.75209 0.19732 9778 ft 292 kts 76°
2026-04-25 20:35 51.75661 0.22965 10538 ft 302 kts 76°
2026-04-25 20:35 51.76145 0.26397 10847 ft 326 kts 76°
2026-04-25 20:35 51.76654 0.30039 11420 ft 337 kts 76°
2026-04-25 20:36 51.77173 0.33757 12203 ft 342 kts 76°
2026-04-25 20:36 51.78022 0.37349 12968 ft 345 kts 57°
2026-04-25 20:36 51.79415 0.40520 13781 ft 347 kts 51°
2026-04-25 20:36 51.80870 0.43665 14523 ft 351 kts 51°
2026-04-25 20:37 51.82346 0.46851 15206 ft 356 kts 51°
2026-04-25 20:37 51.83835 0.50073 15907 ft 360 kts 51°
2026-04-25 20:37 51.85337 0.53339 16608 ft 363 kts 51°
2026-04-25 20:37 51.86853 0.56638 17299 ft 367 kts 51°
2026-04-25 20:38 51.88384 0.59971 17990 ft 371 kts 51°
2026-04-25 20:38 51.89937 0.63352 18669 ft 375 kts 51°
2026-04-25 20:38 51.91500 0.66762 19253 ft 379 kts 51°
2026-04-25 20:38 51.93054 0.70172 19854 ft 383 kts 51°
2026-04-25 20:39 51.94636 0.73662 20460 ft 387 kts 51°
2026-04-25 20:39 51.96229 0.77199 21065 ft 390 kts 51°
2026-04-25 20:39 51.97834 0.80781 21673 ft 394 kts 51°
2026-04-25 20:39 51.98922 0.83220 22070 ft 396 kts 51°
2026-04-25 20:40 52.01067 0.88054 22848 ft 401 kts 51°
2026-04-25 20:40 52.02701 0.91756 23423 ft 405 kts 51°
2026-04-25 20:40 52.04343 0.95493 23951 ft 408 kts 52°
2026-04-25 20:40 52.06005 0.99262 24414 ft 412 kts 52°
2026-04-25 20:41 52.07707 1.03026 24880 ft 414 kts 51°
2026-04-25 20:41 52.09424 1.06795 25342 ft 417 kts 51°
2026-04-25 20:41 52.11162 1.10601 25801 ft 420 kts 51°
2026-04-25 20:41 52.12913 1.14426 26257 ft 423 kts 51°
2026-04-25 20:42 52.14676 1.18269 26708 ft 426 kts 52°
2026-04-25 20:42 52.16251 1.22385 27140 ft 430 kts 60°
2026-04-25 20:42 52.17771 1.26603 27579 ft 432 kts 57°
2026-04-25 20:42 52.19337 1.30727 28022 ft 435 kts 57°
2026-04-25 20:43 52.20967 1.34901 28464 ft 438 kts 56°
2026-04-25 20:43 52.22630 1.39084 28904 ft 441 kts 56°
2026-04-25 20:43 52.24311 1.43282 29334 ft 444 kts 56°
2026-04-25 20:43 52.26001 1.47516 29757 ft 446 kts 56°
2026-04-25 20:44 52.27694 1.51785 30190 ft 449 kts 57°
2026-04-25 20:44 52.29383 1.56076 30580 ft 451 kts 57°
2026-04-25 20:44 52.31072 1.60395 30936 ft 453 kts 57°
2026-04-25 20:44 52.32773 1.64756 31285 ft 455 kts 57°
2026-04-25 20:45 52.34477 1.69126 31616 ft 457 kts 57°
2026-04-25 20:45 52.36192 1.73524 31944 ft 459 kts 57°
2026-04-25 20:45 52.37911 1.77933 32324 ft 459 kts 57°
2026-04-25 20:45 52.39624 1.82336 32799 ft 458 kts 57°
2026-04-25 20:46 52.41328 1.86735 33273 ft 456 kts 57°
2026-04-25 20:46 52.43027 1.91123 33770 ft 455 kts 57°
2026-04-25 20:46 52.44719 1.95500 34235 ft 454 kts 57°
2026-04-25 20:46 52.46408 1.99876 34646 ft 453 kts 57°
2026-04-25 20:47 52.48088 2.04244 35081 ft 452 kts 57°
2026-04-25 20:47 52.49762 2.08606 35488 ft 451 kts 57°
2026-04-25 20:47 52.51427 2.12959 35891 ft 450 kts 57°
2026-04-25 20:47 52.53092 2.17313 36263 ft 449 kts 57°
2026-04-25 20:48 52.54751 2.21651 36633 ft 449 kts 56°
2026-04-25 20:48 52.56410 2.25991 36994 ft 448 kts 57°
2026-04-25 20:48 52.58065 2.30328 37242 ft 448 kts 56°
2026-04-25 20:48 52.59699 2.34620 37288 ft 447 kts 56°
2026-04-25 20:49 52.62989 2.43293 37288 ft 447 kts 57°
2026-04-25 20:49 52.66283 2.51993 37291 ft 447 kts 57°
2026-04-25 20:50 52.69560 2.60690 37288 ft 446 kts 57°
2026-04-25 20:50 52.72832 2.69395 37287 ft 446 kts 56°
2026-04-25 20:51 52.76106 2.78112 37684 ft 446 kts 56°
2026-04-25 20:51 52.77732 2.82458 38008 ft 445 kts 57°
2026-04-25 20:51 52.79352 2.86811 38346 ft 444 kts 56°
2026-04-25 20:52 52.80967 2.91160 38677 ft 444 kts 57°
2026-04-25 20:52 52.82035 2.94039 38897 ft 443 kts 57°
2026-04-25 20:52 52.84188 2.99853 39206 ft 443 kts 57°
2026-04-25 20:52 52.85799 3.04211 39273 ft 444 kts 57°
2026-04-25 20:53 52.89014 3.12924 39281 ft 443 kts 57°
2026-04-25 20:53 52.92199 3.21583 39283 ft 443 kts 57°
2026-04-25 20:54 52.95396 3.30310 39285 ft 443 kts 57°
2026-04-25 20:54 52.98588 3.39035 39285 ft 442 kts 57°
2026-04-25 20:55 53.01772 3.47763 39280 ft 442 kts 57°
2026-04-25 20:55 53.04944 3.56496 39287 ft 442 kts 56°
2026-04-25 20:56 53.08107 3.65259 39284 ft 441 kts 57°
2026-04-25 20:56 53.11266 3.74023 39281 ft 441 kts 57°
2026-04-25 20:57 53.14417 3.82784 39283 ft 441 kts 57°
2026-04-25 20:57 53.17562 3.91569 39283 ft 441 kts 57°
2026-04-25 20:58 53.20696 4.00370 39284 ft 441 kts 57°
2026-04-25 20:58 53.23804 4.09134 39282 ft 441 kts 57°
2026-04-25 20:59 53.26930 4.17963 39272 ft 442 kts 57°
2026-04-25 20:59 53.30054 4.26814 39268 ft 442 kts 57°
2026-04-25 21:00 53.32140 4.32739 39263 ft 442 kts 57°
2026-04-25 21:01 53.37834 4.48990 39260 ft 442 kts 57°
2026-04-25 21:01 53.40939 4.57887 39257 ft 442 kts 57°
2026-04-25 21:02 53.44016 4.66757 39260 ft 442 kts 57°
2026-04-25 21:02 53.47101 4.75694 39251 ft 442 kts 57°
2026-04-25 21:03 53.50176 4.84637 39249 ft 442 kts 57°
2026-04-25 21:03 53.53254 4.93594 39250 ft 442 kts 57°
2026-04-25 21:04 53.56326 5.02556 39252 ft 442 kts 57°
2026-04-25 21:04 53.59386 5.11533 39253 ft 442 kts 58°
2026-04-25 21:05 53.62453 5.20557 39259 ft 442 kts 58°
2026-04-25 21:05 53.65469 5.29475 39271 ft 441 kts 58°
2026-04-25 21:06 53.68497 5.38447 39276 ft 439 kts 58°
2026-04-25 21:06 53.71503 5.47408 39271 ft 438 kts 58°
2026-04-25 21:07 53.74501 5.56380 39271 ft 438 kts 58°
2026-04-25 21:07 53.77494 5.65344 39261 ft 438 kts 58°
2026-04-25 21:08 53.80479 5.74314 39262 ft 437 kts 58°
2026-04-25 21:08 53.82955 5.81783 39274 ft 437 kts 58°
2026-04-25 21:09 53.87885 5.96747 39275 ft 438 kts 58°
2026-04-25 21:09 53.90846 6.05769 39268 ft 438 kts 58°
2026-04-25 21:10 53.93295 6.13272 39262 ft 438 kts 58°
2026-04-25 21:10 53.96247 6.22320 39261 ft 438 kts 58°
2026-04-25 21:11 53.99193 6.31374 39264 ft 438 kts 58°
2026-04-25 21:11 54.02130 6.40445 39273 ft 438 kts 58°
2026-04-25 21:12 54.05057 6.49537 39264 ft 438 kts 58°
2026-04-25 21:12 54.07485 6.57106 39279 ft 438 kts 57°
2026-04-25 21:13 54.10885 6.67756 39273 ft 437 kts 57°
2026-04-25 21:13 54.13786 6.76861 39262 ft 437 kts 57°
2026-04-25 21:14 54.16665 6.85914 39254 ft 436 kts 57°
2026-04-25 21:14 54.19545 6.95026 39265 ft 436 kts 57°
2026-04-25 21:15 54.22419 7.04140 39256 ft 436 kts 57°
2026-04-25 21:15 54.25285 7.13271 39250 ft 436 kts 57°
2026-04-25 21:16 54.28144 7.22411 39245 ft 436 kts 57°
2026-04-25 21:16 54.30988 7.31556 39259 ft 435 kts 57°
2026-04-25 21:17 54.33820 7.40695 39253 ft 434 kts 57°
2026-04-25 21:17 54.36648 7.49831 39264 ft 433 kts 56°
2026-04-25 21:18 54.39460 7.58966 39247 ft 433 kts 56°
2026-04-25 21:18 54.42269 7.68116 39241 ft 433 kts 56°
2026-04-25 21:19 54.45066 7.77276 39228 ft 432 kts 56°
2026-04-25 21:19 54.47851 7.86431 39225 ft 432 kts 56°
2026-04-25 21:20 54.50160 7.94054 39238 ft 432 kts 56°
2026-04-25 21:20 54.53382 8.04714 39218 ft 431 kts 56°
2026-04-25 21:21 54.56145 8.13872 39205 ft 429 kts 55°
2026-04-25 21:21 54.58882 8.23020 39178 ft 429 kts 55°
2026-04-25 21:22 54.61618 8.32194 39178 ft 430 kts 55°
2026-04-25 21:22 54.64351 8.41379 39178 ft 430 kts 56°
2026-04-25 21:23 54.67082 8.50586 39166 ft 431 kts 56°
2026-04-25 21:23 54.69807 8.59810 39168 ft 431 kts 56°
2026-04-25 21:24 54.72522 8.69034 39198 ft 431 kts 54°
2026-04-25 21:24 54.75202 8.78201 39153 ft 429 kts 54°
2026-04-25 21:25 54.77894 8.87445 39149 ft 430 kts 54°
2026-04-25 21:25 54.80582 8.96698 39140 ft 430 kts 54°
2026-04-25 21:26 54.83262 9.05963 39138 ft 430 kts 55°
2026-04-25 21:26 54.85941 9.15261 39141 ft 430 kts 55°
2026-04-25 21:27 54.88611 9.24563 38981 ft 432 kts 55°
2026-04-25 21:27 54.89941 9.29196 38257 ft 435 kts 54°
2026-04-25 21:27 54.91290 9.33903 37686 ft 435 kts 53°
2026-04-25 21:28 54.92640 9.38628 37014 ft 437 kts 54°
2026-04-25 21:28 54.93992 9.43379 36299 ft 439 kts 54°
2026-04-25 21:28 54.95344 9.48148 35559 ft 441 kts 54°
2026-04-25 21:28 54.96703 9.52950 34760 ft 444 kts 54°
2026-04-25 21:29 54.98070 9.57797 34048 ft 446 kts 54°
2026-04-25 21:29 54.99423 9.62625 33562 ft 440 kts 54°
2026-04-25 21:29 55.00756 9.67381 33038 ft 435 kts 54°
2026-04-25 21:29 55.02076 9.72095 32524 ft 431 kts 54°
2026-04-25 21:30 55.03385 9.76770 32004 ft 427 kts 54°
2026-04-25 21:30 55.04680 9.81397 31494 ft 423 kts 54°
2026-04-25 21:30 55.05965 9.85988 30974 ft 420 kts 54°
2026-04-25 21:30 55.06811 9.89014 30644 ft 417 kts 54°
2026-04-25 21:31 55.08507 9.95092 29914 ft 415 kts 53°
2026-04-25 21:31 55.09757 9.99603 29418 ft 410 kts 53°
2026-04-25 21:31 55.10987 10.04054 28918 ft 405 kts 53°
2026-04-25 21:31 55.12204 10.08463 28426 ft 401 kts 52°
2026-04-25 21:32 55.13391 10.12767 27967 ft 396 kts 52°
2026-04-25 21:32 55.14578 10.17084 27498 ft 392 kts 52°
2026-04-25 21:32 55.15586 10.21528 27266 ft 397 kts 63°
2026-04-25 21:32 55.16248 10.26230 27183 ft 387 kts 64°
2026-04-25 21:33 55.16864 10.30697 27087 ft 380 kts 63°
2026-04-25 21:33 55.17504 10.35229 26831 ft 393 kts 63°
2026-04-25 21:33 55.18181 10.39941 26260 ft 401 kts 64°
2026-04-25 21:33 55.18845 10.44684 25715 ft 403 kts 64°
2026-04-25 21:34 55.19497 10.49456 25178 ft 403 kts 64°
2026-04-25 21:34 55.20140 10.54242 24653 ft 404 kts 65°
2026-04-25 21:34 55.20777 10.59035 24138 ft 404 kts 64°
2026-04-25 21:34 55.21418 10.63827 23619 ft 403 kts 64°
2026-04-25 21:35 55.22050 10.68544 23026 ft 402 kts 64°
2026-04-25 21:35 55.22686 10.73306 22425 ft 401 kts 65°
2026-04-25 21:35 55.23318 10.78052 21852 ft 399 kts 64°
2026-04-25 21:35 55.23948 10.82772 21282 ft 397 kts 64°
2026-04-25 21:36 55.24569 10.87448 20720 ft 391 kts 64°
2026-04-25 21:36 55.25171 10.92035 20187 ft 381 kts 64°
2026-04-25 21:36 55.25746 10.96479 19699 ft 367 kts 64°
2026-04-25 21:36 55.26304 11.00778 19220 ft 356 kts 64°
2026-04-25 21:37 55.26852 11.04962 18747 ft 348 kts 63°
2026-04-25 21:37 55.27217 11.07736 18454 ft 344 kts 63°
2026-04-25 21:37 55.27924 11.13095 17834 ft 337 kts 61°
2026-04-25 21:37 55.28451 11.17079 17317 ft 333 kts 61°
2026-04-25 21:38 55.28970 11.21013 16898 ft 330 kts 61°
2026-04-25 21:38 55.29485 11.24921 16482 ft 327 kts 61°
2026-04-25 21:38 55.29992 11.28800 16073 ft 325 kts 62°
2026-04-25 21:38 55.30491 11.32649 15670 ft 323 kts 62°
2026-04-25 21:39 55.30986 11.36475 15305 ft 321 kts 62°
2026-04-25 21:39 55.31479 11.40292 14961 ft 319 kts 62°
2026-04-25 21:39 55.31967 11.44082 14622 ft 317 kts 62°
2026-04-25 21:39 55.32443 11.47800 14287 ft 316 kts 62°
2026-04-25 21:40 55.32926 11.51603 13929 ft 314 kts 62°
2026-04-25 21:40 55.33393 11.55286 13531 ft 312 kts 63°
2026-04-25 21:40 55.33866 11.58994 13117 ft 310 kts 63°
2026-04-25 21:40 55.34335 11.62673 12707 ft 308 kts 64°
2026-04-25 21:41 55.34800 11.66330 12308 ft 306 kts 65°
2026-04-25 21:41 55.35258 11.69961 11965 ft 304 kts 66°
2026-04-25 21:41 55.35712 11.73572 11577 ft 301 kts 67°
2026-04-25 21:41 55.36154 11.77134 11198 ft 293 kts 68°
2026-04-25 21:42 55.36572 11.80572 10839 ft 283 kts 68°
2026-04-25 21:42 55.36977 11.83899 10444 ft 274 kts 69°
2026-04-25 21:42 55.37375 11.87130 10046 ft 267 kts 69°
2026-04-25 21:42 55.37767 11.90284 9596 ft 262 kts 70°
2026-04-25 21:43 55.38156 11.93393 9123 ft 258 kts 70°
2026-04-25 21:43 55.38536 11.96450 8665 ft 254 kts 70°
2026-04-25 21:43 55.38908 11.99464 8207 ft 251 kts 71°
2026-04-25 21:43 55.39275 12.02445 7754 ft 247 kts 71°
2026-04-25 21:44 55.39634 12.05383 7304 ft 244 kts 71°
2026-04-25 21:44 55.39984 12.08248 6867 ft 241 kts 72°
2026-04-25 21:44 55.40717 12.13954 5972 ft 234 kts 71°
2026-04-25 21:45 55.41085 12.16709 5522 ft 229 kts 71°
2026-04-25 21:45 55.41320 12.18499 5224 ft 225 kts 71°
2026-04-25 21:45 55.41773 12.22032 4628 ft 218 kts 71°
2026-04-25 21:45 55.42092 12.24574 4182 ft 213 kts 71°
2026-04-25 21:46 55.42406 12.27102 3739 ft 210 kts 71°
2026-04-25 21:46 55.42712 12.29591 3309 ft 207 kts 70°
2026-04-25 21:46 55.43008 12.32031 3000 ft 197 kts 70°
2026-04-25 21:46 55.43280 12.34303 2992 ft 184 kts 68°
2026-04-25 21:47 55.43770 12.36294 3035 ft 172 kts 49°
2026-04-25 21:47 55.44544 12.37818 3008 ft 164 kts 34°
2026-04-25 21:47 55.45409 12.39136 2998 ft 163 kts 34°
2026-04-25 21:47 55.46267 12.40450 2999 ft 163 kts 34°
2026-04-25 21:48 55.47123 12.41761 2992 ft 163 kts 34°
2026-04-25 21:48 55.47983 12.43076 2935 ft 164 kts 34°
2026-04-25 21:48 55.48843 12.44395 2768 ft 163 kts 34°
2026-04-25 21:48 55.49696 12.45702 2561 ft 161 kts 34°
2026-04-25 21:49 55.50539 12.46996 2344 ft 161 kts 33°
2026-04-25 21:49 55.51385 12.48293 2123 ft 161 kts 33°
2026-04-25 21:49 55.52209 12.49561 1904 ft 153 kts 33°
2026-04-25 21:49 55.52967 12.50733 1712 ft 133 kts 32°
2026-04-25 21:50 55.53634 12.51760 1508 ft 123 kts 31°
2026-04-25 21:50 55.54262 12.52724 1350 ft 117 kts 31°
2026-04-25 21:50 55.54871 12.53654 1214 ft 115 kts 31°
2026-04-25 21:50 55.55271 12.54266 1105 ft 114 kts 31°
2026-04-25 21:51 55.56080 12.55500 854 ft 115 kts 32°
2026-04-25 21:51 55.56684 12.56436 675 ft 118 kts 34°
2026-04-25 21:51 55.57312 12.57405 539 ft 121 kts 35°
2026-04-25 21:51 55.57949 12.58377 385 ft 121 kts 38°
2026-04-25 21:52 55.58580 12.59362 212 ft 120 kts 33°
2026-04-25 21:52 55.59214 12.60338 91 ft 121 kts 32°
2026-04-25 21:52 55.59802 12.61243 23 ft 94 kts 41°
2026-04-25 21:52 55.60096 12.61702 27 ft 46 kts 41°